[[{"header":{"parameterUnit":"m.s-1","parameterCategory":1,"la1":30.2991,"la2":30.254,"lo1":-89.0895,"lo2":-89.0444,"dx":0.0017,"dy":0.0017,"nx":28,"ny":28,"refTime":"2022-11-19T09:00:00:Z","depth":0,"parameterNumber":2,"parameterNumberName":"U-component_of_WINDS"},"data":[0,0,0,0,0,0,0,0,0,0,0,0,0,0,0,0,0,0,0,0,0,0,0,0,0,0,0,0,0,0,0,0,0,0,0,0,0,0,0,0,0,0,0,0,0,0,0,0,0,0,0,0,0,0,0,0,0,0,-2.0843,-2.0843,0,-2.0893,-2.0894,-2.0894,-2.0789,-2.0786,-2.0782,-2.0779,-2.0833,-2.0837,-2.0842,0,0,0,0,0,0,0,0,0,0,0,0,0,-2.0657,-2.0661,-2.0843,-2.0844,-2.0844,-2.0893,-2.0894,-2.0894,-2.079,-2.0786,-2.0781,-2.0778,-2.0831,-2.0837,-2.0842,0,0,0,0,0,0,0,0,0,0,0,0,0,-2.0726,-2.0662,-2.0843,-2.0798,-2.0794,-2.0893,-2.0894,-2.0895,-2.0791,-2.0785,-2.078,-2.0776,-2.0829,-2.0836,-2.0843,-2.0989,0,0,-2.0864,-2.0867,0,0,0,0,0,0,0,0,-2.0722,-2.0732,-2.0804,-2.0801,-2.0797,-2.083,-2.0848,-2.0926,-2.0792,-2.0792,-2.0779,-2.0773,-2.0836,-2.0842,-2.0863,-2.0991,-2.0993,-2.0865,-2.0869,-2.0872,-2.0874,0,0,0,0,0,0,0,-2.0717,-2.073,-2.0863,-2.0805,-2.0801,-2.0775,-2.0779,-2.0862,-2.0842,-2.0792,-2.0784,-2.0791,-2.0833,-2.0856,-2.0863,-2.0994,-2.0865,-2.0871,-2.0875,-2.0878,-2.1244,-2.1249,0,0,0,0,0,0,-2.0718,-2.0726,-2.0861,-2.0864,-2.0746,-2.0783,-2.0787,-2.0824,-2.0841,-2.0839,-2.0796,-2.0786,-2.0847,-2.0855,-2.0865,-2.1037,-2.0872,-2.0878,-2.0882,-2.1238,-2.1245,-2.1251,0,0,0,0,0,0,-2.0714,-2.0731,-2.0859,-2.0793,-2.0808,-2.0791,-2.0834,-2.0828,-2.0851,-2.0844,-2.084,-2.0823,-2.0843,-2.0855,-2.0958,-2.1037,-2.0882,-2.0888,-2.1232,-2.124,-2.1248,-2.1381,0,0,0,0,0,0,-2.0709,-2.073,-2.0785,-2.0795,-2.0812,-2.0952,-2.0839,-2.0833,-2.0863,-2.0851,-2.0869,-2.0867,-2.084,-2.0949,-2.0965,-2.1044,-2.0893,-2.1224,-2.1235,-2.1245,-2.137,-2.1393,-2.1413,0,0,0,0,0,-2.0703,-2.0822,-2.0789,-2.0806,-2.088,-2.0957,-2.0966,-2.0933,-2.087,-2.0925,-2.0921,-2.0866,-2.1025,-2.096,-2.0978,-2.106,-2.1219,-2.1232,-2.1244,-2.136,-2.1389,-2.1413,0,0,0,0,0,0,-2.0823,-2.0822,-2.0786,-2.0911,-2.0935,-2.0939,-2.1008,-2.0964,-2.1007,-2.0994,-2.0951,-2.0956,-2.1068,-2.1073,-2.1001,-2.1201,-2.1112,-2.1128,-2.1194,-2.1221,-2.1242,-2.1239,-2.0899,0,0,0,0,0,-2.0863,-2.0925,-2.0921,-2.1032,-2.1046,-2.1025,-2.1057,-2.1029,-2.1052,-2.1062,-2.1065,-2.109,-2.1145,-2.1183,-2.1233,-2.1369,-2.1372,-2.1434,-2.1456,-2.1474,-2.1489,-2.1561,-2.1589,-2.1292,-2.1292,-2.1292,0,0,-2.0949,-2.0956,-2.0998,-2.1057,-2.1072,-2.1137,-2.1035,-2.1108,-2.1157,-2.1073,-2.1171,-2.1174,-2.1199,-2.1319,-2.1372,-2.1328,-2.1571,-2.149,-2.1504,-2.151,-2.1577,-2.1605,-2.1631,-2.13,-2.1299,-2.1298,0,0,-2.1138,-2.1149,-2.1243,-2.126,-2.1283,-2.1268,-2.1291,-2.1302,-2.13,-2.1397,-2.1336,-2.1392,-2.1489,-2.1509,-2.1532,-2.1726,-2.1678,-2.1744,-2.1858,-2.1929,-2.1952,-2.1973,-2.2043,-2.2069,-2.1759,-2.1759,-2.1759,0,-2.1242,-2.1338,-2.1297,-2.1375,-2.1403,-2.1328,-2.1423,-2.1441,-2.1481,-2.1502,-2.145,-2.1569,-2.158,-2.1704,-2.1752,-2.1772,-2.1797,-2.1743,-2.1952,-2.1972,-2.1991,-2.2057,-2.2084,-2.1767,-2.1766,-2.1765,-2.1765,0,-2.1464,-2.1531,-2.1604,-2.1643,-2.1678,-2.1764,-2.1737,-2.1778,-2.1746,-2.1736,-2.1836,-2.1846,-2.1898,-2.1924,-2.1894,-2.2044,-2.2016,-2.1959,-2.1869,-2.2028,-2.209,-2.2115,-2.1778,-2.1776,-2.1773,-2.1771,0,0,-2.1733,-2.1747,-2.1774,-2.1791,-2.181,-2.1862,-2.1944,-2.1993,-2.2029,-2.2058,-2.2126,-2.2208,-2.2155,-2.2181,-2.2152,-2.2214,-2.2369,-2.215,-2.215,-2.2191,-2.2535,-2.2579,-2.2609,-2.2335,-2.234,-2.2344,-2.2533,0,-2.1921,-2.2063,-2.2028,-2.2168,-2.2229,-2.2159,-2.223,-2.225,-2.2243,-2.2294,-2.2285,-2.2345,-2.227,-2.2285,-2.2343,-2.2338,-2.2437,-2.2323,-2.2399,-2.2403,-2.2398,-2.2641,-2.2688,-2.2866,-2.2557,-2.2561,-2.2564,0,-2.2161,-2.2198,-2.2344,-2.2353,-2.2377,-2.2442,-2.2484,-2.2534,-2.2554,-2.2544,-2.2573,-2.2531,-2.2612,-2.2519,-2.263,-2.2553,-2.2582,-2.2583,-2.2589,-2.2597,-2.2495,-2.2657,-2.2922,-2.295,-2.2601,-2.2598,-2.2596,0,-2.2344,-2.243,-2.2529,-2.2545,-2.2557,-2.2604,-2.2612,-2.2627,-2.2658,-2.2694,-2.2714,-2.276,-2.2785,-2.2821,-2.2793,-2.2728,-2.2909,-2.2814,-2.2904,-2.2905,-2.2947,-2.2945,-2.3223,-2.2963,-2.2963,-2.2962,-2.2962,0,-2.2559,-2.2652,-2.2611,-2.2672,-2.2774,-2.2732,-2.2833,-2.2832,-2.2846,-2.2905,-2.2846,-2.2904,-2.2862,-2.2915,-2.2893,-2.2989,-2.3,-2.2995,-2.2989,-2.3002,-2.3003,-2.3021,-2.3009,-2.2969,-2.2968,-2.2966,-2.2965,0,-2.2782,-2.2759,-2.2862,-2.2864,-2.2866,-2.2941,-2.2943,-2.2999,-2.2986,-2.3062,-2.3078,-2.3058,-2.3118,-2.3092,-2.3155,-2.314,-2.3263,-2.3239,-2.3257,-2.3251,-2.3343,-2.3336,-2.3644,-2.3683,-2.3397,-2.3399,-2.3402,0,-2.2922,-2.2992,-2.3001,-2.3036,-2.3047,-2.3105,-2.3136,-2.3097,-2.3132,-2.316,-2.3213,-2.3267,-2.3309,-2.3407,-2.3399,-2.3446,-2.3424,-2.3529,-2.3431,-2.3442,-2.3427,-2.3424,-2.3431,-2.3549,-2.3553,-2.3555,-2.3558,0,-2.3174,-2.3158,-2.3205,-2.3249,-2.3287,-2.332,-2.3347,-2.3379,-2.3341,-2.3383,-2.3443,-2.3475,-2.3538,-2.3593,-2.3635,-2.3642,-2.3595,-2.3588,-2.3611,-2.3627,-2.3634,-2.3632,-2.3312,-2.3582,-2.3579,-2.3578,-2.3576,-2.3575,-2.336,-2.3419,-2.3434,-2.3488,-2.3504,-2.3531,-2.3583,-2.3576,-2.3626,-2.3674,-2.3647,-2.3717,-2.3734,-2.3785,-2.3799,-2.3853,-2.3812,-2.3846,-2.3855,-2.3864,-2.3877,-2.3624,-2.386,-2.3859,-2.3859,-2.3858,-2.3858,0,-2.361,-2.3616,-2.3666,-2.3705,-2.3748,-2.3697,-2.3724,-2.3763,-2.3825,-2.3845,-2.3886,-2.3955,-2.4007,-2.4002,-2.405,-2.4094,-2.4073,-2.4108,-2.4106,-2.4108,-2.391,-2.3886,-2.4124,-2.4124,-2.4124,-2.4124,-2.4124,-2.4124,-2.3745,-2.3841,-2.3827,-2.393,-2.3934,-2.4002,-2.4022,-2.4046,-2.4061,-2.414,-2.4183,-2.4178,-2.4188,-2.4236,-2.4281,-2.4278,-2.4299,-2.4343,-2.4332,-2.4148,-2.4122,-2.4097,-2.4074,-2.4347,-2.4348,-2.4525,-2.4527,-2.4528]},{"header":{"parameterUnit":"m.s-1","parameterCategory":1,"la1":30.2991,"la2":30.254,"lo1":-89.0895,"lo2":-89.0444,"dx":0.0017,"dy":0.0017,"nx":28,"ny":28,"refTime":"2022-11-19T09:00:00:Z","depth":0,"parameterNumber":3,"parameterNumberName":"V-component_of_WINDS"},"data":[0,0,0,0,0,0,0,0,0,0,0,0,0,0,0,0,0,0,0,0,0,0,0,0,0,0,0,0,0,0,0,0,0,0,0,0,0,0,0,0,0,0,0,0,0,0,0,0,0,0,0,0,0,0,0,0,0,0,-5.1421,-5.1422,0,-5.1525,-5.1526,-5.1527,-5.1448,-5.1444,-5.1441,-5.1438,-5.1539,-5.1544,-5.155,0,0,0,0,0,0,0,0,0,0,0,0,0,-5.1148,-5.1153,-5.1421,-5.1422,-5.1423,-5.1524,-5.1526,-5.1527,-5.1448,-5.1444,-5.144,-5.1436,-5.1537,-5.1544,-5.1551,0,0,0,0,0,0,0,0,0,0,0,0,0,-5.126,-5.1155,-5.142,-5.1396,-5.1395,-5.1524,-5.1526,-5.1528,-5.1449,-5.1444,-5.1439,-5.1434,-5.1534,-5.1543,-5.1552,-5.1708,0,0,-5.1578,-5.1582,0,0,0,0,0,0,0,0,-5.1254,-5.127,-5.1398,-5.1398,-5.1397,-5.1468,-5.1466,-5.1588,-5.145,-5.1428,-5.1438,-5.1432,-5.1519,-5.1529,-5.1559,-5.1713,-5.1717,-5.1579,-5.1585,-5.1588,-5.1591,0,0,0,0,0,0,0,-5.1246,-5.1265,-5.1461,-5.14,-5.14,-5.1378,-5.1388,-5.1489,-5.1501,-5.143,-5.1425,-5.1438,-5.1517,-5.1551,-5.1561,-5.1719,-5.1579,-5.1587,-5.1592,-5.1596,-5.2004,-5.2009,0,0,0,0,0,0,-5.1242,-5.1259,-5.1458,-5.1465,-5.1312,-5.1387,-5.1399,-5.145,-5.15,-5.1502,-5.1442,-5.1434,-5.1538,-5.1551,-5.1564,-5.175,-5.1588,-5.1597,-5.1602,-5.1999,-5.2005,-5.2011,0,0,0,0,0,0,-5.1236,-5.126,-5.1454,-5.1361,-5.1384,-5.1397,-5.1456,-5.1455,-5.1488,-5.1509,-5.151,-5.1475,-5.1535,-5.1552,-5.1673,-5.1752,-5.1601,-5.1609,-5.1992,-5.2001,-5.2008,-5.2123,0,0,0,0,0,0,-5.1229,-5.1259,-5.132,-5.1363,-5.1389,-5.1564,-5.1461,-5.1461,-5.1505,-5.1495,-5.154,-5.1542,-5.1532,-5.166,-5.1682,-5.1761,-5.1615,-5.1985,-5.1996,-5.2006,-5.2112,-5.2134,-5.2153,0,0,0,0,0,-5.1219,-5.1347,-5.1324,-5.1348,-5.1466,-5.1568,-5.1583,-5.157,-5.1511,-5.1572,-5.1585,-5.1541,-5.174,-5.1673,-5.1697,-5.178,-5.198,-5.1993,-5.2005,-5.2103,-5.213,-5.2153,0,0,0,0,0,0,-5.1312,-5.1353,-5.1327,-5.1473,-5.1518,-5.1555,-5.1631,-5.1599,-5.1661,-5.1649,-5.1628,-5.1639,-5.1766,-5.1785,-5.171,-5.1934,-5.185,-5.1868,-5.1917,-5.1942,-5.1963,-5.1955,-5.1623,0,0,0,0,0,-5.135,-5.1431,-5.1461,-5.1587,-5.1611,-5.1618,-5.1662,-5.1648,-5.1693,-5.1711,-5.1733,-5.1777,-5.1848,-5.1896,-5.1964,-5.2114,-5.2122,-5.2183,-5.2204,-5.222,-5.2236,-5.2315,-5.2342,-5.2053,-5.2052,-5.2052,0,0,-5.1428,-5.146,-5.1513,-5.1607,-5.164,-5.1723,-5.1634,-5.1725,-5.1786,-5.1724,-5.184,-5.1858,-5.1905,-5.2041,-5.2102,-5.2061,-5.2317,-5.2236,-5.225,-5.2256,-5.233,-5.2358,-5.2382,-5.2061,-5.2059,-5.2058,0,0,-5.1613,-5.1647,-5.1755,-5.179,-5.1842,-5.1845,-5.1871,-5.1913,-5.1922,-5.2039,-5.1994,-5.2064,-5.2189,-5.2224,-5.2259,-5.2456,-5.2417,-5.2478,-5.2585,-5.2662,-5.2685,-5.2705,-5.2774,-5.2799,-5.2493,-5.2494,-5.2494,0,-5.1704,-5.1828,-5.1814,-5.1909,-5.195,-5.19,-5.2007,-5.2042,-5.2113,-5.2141,-5.2095,-5.225,-5.2278,-5.2421,-5.2469,-5.2499,-5.2526,-5.2473,-5.2683,-5.2703,-5.2721,-5.2787,-5.2813,-5.2501,-5.25,-5.2499,-5.2499,0,-5.1936,-5.2023,-5.2103,-5.2175,-5.2225,-5.2326,-5.2325,-5.2378,-5.2359,-5.2366,-5.2484,-5.2516,-5.2589,-5.2622,-5.2604,-5.2762,-5.2734,-5.2686,-5.2602,-5.2756,-5.2817,-5.2842,-5.2511,-5.2508,-5.2506,-5.2504,0,0,-5.2183,-5.2244,-5.2274,-5.2305,-5.2358,-5.2424,-5.2521,-5.2594,-5.2639,-5.2689,-5.2768,-5.2875,-5.283,-5.2869,-5.2855,-5.2923,-5.3075,-5.2865,-5.2866,-5.2902,-5.3248,-5.3284,-5.3314,-5.305,-5.3054,-5.3058,-5.3244,0,-5.2369,-5.2542,-5.2531,-5.2691,-5.277,-5.2722,-5.2807,-5.2847,-5.2856,-5.2923,-5.2931,-5.3007,-5.2943,-5.2966,-5.3031,-5.3043,-5.3144,-5.3029,-5.3122,-5.3125,-5.3111,-5.3346,-5.3384,-5.3558,-5.3268,-5.3272,-5.3275,0,-5.261,-5.267,-5.284,-5.288,-5.2912,-5.2989,-5.3053,-5.3118,-5.3162,-5.3163,-5.3207,-5.3181,-5.3277,-5.3191,-5.3321,-5.3243,-5.328,-5.3291,-5.3298,-5.3305,-5.3209,-5.3358,-5.3613,-5.3639,-5.3313,-5.331,-5.3307,0,-5.2772,-5.2895,-5.3011,-5.3039,-5.3089,-5.3144,-5.3167,-5.3206,-5.325,-5.3305,-5.3333,-5.3399,-5.3435,-5.3485,-5.3477,-5.3415,-5.3609,-5.3523,-5.3611,-5.3612,-5.3654,-5.3651,-5.3917,-5.3679,-5.3679,-5.3679,-5.3678,0,-5.2981,-5.3086,-5.3084,-5.3156,-5.3272,-5.3257,-5.3371,-5.3387,-5.3422,-5.3494,-5.3456,-5.3524,-5.351,-5.3577,-5.357,-5.3678,-5.3695,-5.3697,-5.3694,-5.37,-5.37,-5.3724,-5.3711,-5.3685,-5.3684,-5.3683,-5.3681,0,-5.3181,-5.3185,-5.3308,-5.3346,-5.3357,-5.3441,-5.3471,-5.3538,-5.3543,-5.3635,-5.3656,-5.3664,-5.3741,-5.3738,-5.3824,-5.382,-5.3953,-5.3936,-5.3939,-5.3935,-5.4023,-5.4014,-5.4313,-5.4351,-5.4089,-5.4092,-5.4094,0,-5.3314,-5.3394,-5.344,-5.3486,-5.3513,-5.3589,-5.3633,-5.3621,-5.3669,-5.3724,-5.3784,-5.3858,-5.3916,-5.4041,-5.4053,-5.4119,-5.4102,-5.4202,-5.4112,-5.4115,-5.4102,-5.4097,-5.4104,-5.422,-5.4223,-5.4225,-5.4227,0,-5.3549,-5.3547,-5.3614,-5.3682,-5.3736,-5.3788,-5.3836,-5.3876,-5.3868,-5.3923,-5.4003,-5.4048,-5.4137,-5.421,-5.4272,-5.4293,-5.4259,-5.4256,-5.428,-5.4286,-5.4284,-5.4285,-5.3986,-5.4249,-5.4247,-5.4245,-5.4244,-5.4243,-5.3719,-5.3787,-5.383,-5.3905,-5.394,-5.3985,-5.405,-5.4064,-5.413,-5.4203,-5.4191,-5.4279,-5.4318,-5.4399,-5.4426,-5.4493,-5.4457,-5.4492,-5.45,-5.4509,-5.4518,-5.4275,-5.4504,-5.4504,-5.4503,-5.4503,-5.4502,0,-5.3951,-5.3976,-5.4046,-5.4114,-5.4173,-5.4137,-5.4188,-5.4239,-5.4317,-5.4358,-5.4417,-5.4506,-5.4577,-5.4595,-5.4661,-5.4712,-5.4697,-5.4729,-5.4725,-5.473,-5.4547,-5.452,-5.474,-5.474,-5.474,-5.474,-5.474,-5.474,-5.4079,-5.4192,-5.4194,-5.4323,-5.4347,-5.4434,-5.4466,-5.4507,-5.4539,-5.4642,-5.4701,-5.4712,-5.4743,-5.4812,-5.4874,-5.4877,-5.4903,-5.4941,-5.4938,-5.4767,-5.4743,-5.472,-5.4694,-5.4947,-5.4948,-5.5115,-5.5117,-5.5118]}]]